Location: Norton
(51.3000°N, 0.8167°E)
Time: 10:12:22
(UTC+00:00)

Cosmos 1066 Rocket - Pass Details

Date: 03 March 2021
Orbit: 799 x 894 km, 81.2° (Epoch: 13 April)

Event Time Altitude Azimuth Distance (km) Brightness Sun altitude
Rises 19:34:07 0° 348° (NNW) 3,431 7.7 -18.4°
Reaches altitude 10° 19:36:33 10° 351° (N) 2,505 6.9 -18.7°
Maximum altitude 19:42:14 67° 75° (ENE) 947 4.2 -19.6°
Enters shadow 19:45:47 24° 152° (SSE) 1,736 5.4 -20.1°
